Tom Marquand

Tom Marquand

Statistiques 2026

  • Courses courues : 256
  • Nb de victoires : 23
  • Nb de places : 71
  • Écart gagnant : 1
  • Réussite à la gagne : 9%
  • Réussite à la place : 28%
Musique : 2p 6p 10p 8p 1p 2p 10p 12p 15p 5p 8p 8p 7p 2p 2p 19p 14p 4p
DateRangCatégorieAlloc.Dist.HippodromeChevalPoidsSpé.
27/07/26 8 Galop 11 765€ Gb-Southwell Chale Chalo 57,5 Plat
27/07/26 2 Galop 7 294€ Gb-Southwell Venetian Lion 61 Plat
27/07/26 10 Galop 8 941€ Gb-Southwell Seraglio Point 58 Plat
27/07/26 8 Galop 14 118€ Gb-Southwell Sharp Move 67 Plat
25/07/26 2 Galop 70 588€ Gb-Ascot Getreadytorumble 62,5 Plat
25/07/26 9 Galop 70 588€ Gb-Ascot Urban Lion 61 Plat
25/07/26 5 Galop 36 059€ Gb-Ascot Edwin Hubble 58 Plat
25/07/26 4 Galop 176 471€ Gb-Ascot Extremely Zain 59 Plat
25/07/26 6 Galop 111 765€ Gb-Ascot Sukanya 57 Plat
25/07/26 7 Galop 58 824€ Gb-Ascot Perfect Strike 58 Plat
24/07/26 7 Galop 30 176€ Gb-Ascot Desert Treasure 60 Plat
24/07/26 3 Galop 30 176€ Gb-Ascot Gallant 64 Plat
24/07/26 5 Galop 76 471€ Gb-Ascot Firehorse 59,5 Plat
24/07/26 3 Galop 29 412€ Gb-Ascot Sweetwonderfulyou 58 Plat
21/07/26 5 Galop 12 353€ Gb-Nottingham Darzah 61 Plat
21/07/26 4 Galop 7 765€ Gb-Nottingham The Bureau Club 59,5 Plat
21/07/26 1 Galop 11 765€ Gb-Nottingham Too Too Divine 58 Plat
20/07/26 7 Galop 9 412€ Gb-Windsor Lady Rosalind 60 Plat
18/07/26 6 Galop 323 529€ Gb-Newbury Vollering 57,5 Plat
18/07/26 4 Galop 117 647€ Gb-Newbury Binhareer 61,5 Plat
17/07/26 2 Galop 12 941€ Gb-Newbury Luminare 60 Plat
17/07/26 6 Galop 58 824€ Gb-Newbury God Given Talent 58 Plat
17/07/26 3 Galop 14 118€ Gb-Newbury Next Of Kin 58 Plat
14/07/26 1 Galop 600 000€ Longchamp Maltese Cross 58 Plat
13/07/26 5 Galop 9 767€ Gb-Windsor Bintsaleh 60,5 Plat
13/07/26 8 Galop 12 558€ Gb-Windsor Tribal Rhythm 61,5 Plat
13/07/26 12 Galop 12 558€ Gb-Windsor Media Darling 61 Plat
13/07/26 4 Galop 11 628€ Gb-Windsor He's Readytorumble 60 Plat
13/07/26 2 Galop 11 628€ Gb-Windsor Mithaaly 60 Plat
13/07/26 7 Galop 11 628€ Gb-Windsor Adalo 59 Plat
11/07/26 4 Galop 34 884€ Gb-Newmarket Bintabuha 59,5 Plat
11/07/26 10 Galop 46 512€ Gb-Newmarket Pinatubo's Legacy 62,5 Plat
11/07/26 9 Galop 930 233€ Gb-Newmarket Almeraq 61 Plat
11/07/26 7 Galop 145 349€ Gb-Newmarket Green Sovereign 58,5 Plat
11/07/26 5 Galop 58 140€ Gb-Newmarket Song N Dance 59,5 Plat
11/07/26 5 Galop 24 419€ Gb-Newmarket Sioux River 58 Plat
10/07/26 9 Galop 34 884€ Gb-Newmarket Never Just A Dream 60,5 Plat
10/07/26 10 Galop 24 419€ Gb-Newmarket Pure Majesty 58 Plat
10/07/26 10 Galop 116 279€ Gb-Newmarket Majestic 57 Plat
10/07/26 6 Galop 116 279€ Gb-Newmarket Princling 57,5 Plat
09/07/26 4 Galop 69 767€ Gb-Newmarket Lyneham 59,5 Plat
09/07/26 2 Galop 46 512€ Gb-Newmarket Tall Trees 58 Plat
09/07/26 3 Galop 116 279€ Gb-Newmarket Thunder Call 57 Plat
07/07/26 8 Galop 7 558€ Gb-Pontefract Cloudy Rose 59,5 Plat
07/07/26 7 Galop 69 767€ Gb-Pontefract Consecrated 58 Plat
07/07/26 5 Galop 13 953€ Gb-Pontefract Kinetic Impact 60 Plat
04/07/26 9 Galop 191 860€ Gb-Newmarket Sharpen 60 Plat
29/06/26 0 Galop 9 655€ Gb-Windsor Echo Of Faith 61,5 Plat
29/06/26 6 Galop 8 276€ Gb-Windsor Galactic Glow 61 Plat
29/06/26 5 Galop 21 149€ Gb-Windsor Londoner 64 Plat